{"data":{"norad_id":65590,"intl_designator":"2025-206B","name":"COSMOS 2596 (708K)","alt_names":[],"object_type":"PAYLOAD","status":"ACTIVE","operator":null,"country":"CIS","launch_date":"2025-09-13","launch_site_code":"PLMSC","launch_vehicle":null,"mission":null,"orbit_class":"UNKNOWN","rcs_meters":null,"size_class":null,"mass_kg":null,"dimensions":null,"purposes":["nav"],"wikipedia_slug":null,"has_3d_model":false,"image_url":null,"decayed_at":null,"tle_current":{"epoch":"2026-09-14T04:12:59.260032Z","epoch_age_seconds":564670,"freshness":"STALE","line1":"1 65590U 25206B   26257.17568588 -.00000054  00000+0  00000+0 0  9998","line2":"2 65590  64.5776 311.8831 0012346 302.0561  78.6627  2.13100925  7815","mean_motion":2.13100925,"eccentricity":0.0012346,"inclination_deg":64.5776,"raan_deg":311.8831,"arg_perigee_deg":302.0561,"mean_anomaly_deg":78.6627,"bstar":0,"rev_number":781,"period_min":675.7361564714,"perigee_km":19098.480899066,"apogee_km":19161.465524801,"semimajor_km":25508.110211933,"source":"CELESTRAK","updated_at":"2026-09-20T09:00:46.280634Z"}}}